Terug naar catalogus

NOAA 16 DEB

ActiefPO
NORAD 41404·DEBRIS·🇺🇸 United States

Gelanceerd Sep 21, 2000 vanaf Vandenberg Space Force Base

Loading…

Volgende Passages (komende 24 uur)

TLE

VersSource: Space-Track

Epoch: Sep 14, 2026, 12:29 UTC

1 41404U 00055KH  26257.52047819  .00004370  00000-0  10540-2 0  9997
2 41404  99.0065 140.9767 0023055 254.8218 105.0426 14.53595985551006

Volg NOAA 16 DEB in realtime met AllMySat

Download on the App Store